Location: ????????
(55.6333°N, 37.7000°E)
Time: 03:38:19
(UTC+00:00)

Cosmos 1331 Rocket - Pass Details

Date: 19 May 2025
Orbit: 746 x 773 km, 74.0° (Epoch: 19 June)

Event Time Altitude Azimuth Distance (km) Brightness Sun altitude
Rises 22:47:11 0° 330° (NNW) 3,233 7.9 -12.4°
Reaches altitude 10° 22:49:36 10° 326° (NW) 2,299 7.0 -12.3°
Maximum altitude 22:54:40 54° 250° (WSW) 912 4.2 -12.1°
Enters shadow 22:59:09 13° 175° (S) 2,069 5.7 -11.8°
